EST,Max TemperatureF,Mean TemperatureF,Min TemperatureF,Max Dew PointF,MeanDew PointF,Min DewpointF,Max Humidity, Mean Humidity, Min Humidity, Max Sea Level PressureIn, Mean Sea Level PressureIn, Min Sea Level PressureIn, Max VisibilityMiles, Mean VisibilityMiles, Min VisibilityMiles, Max Wind SpeedMPH, Mean Wind SpeedMPH, Max Gust SpeedMPH,PrecipitationIn, CloudCover, Events, WindDirDegrees
2013-2-1,26,22,17,14,8,1,68,54,39,30.29,30.01,29.79,10,9,1,25,14,36,T,5,Snow,274
2013-2-2,22,18,13,16,8,2,84,65,45,30.30,30.14,30.02,10,7,2,22,8,28,0.01,6,Snow,167
2013-2-3,28,24,19,22,18,9,84,76,68,30.00,29.86,29.77,10,7,2,21,4,28,T,7,Snow,213
2013-2-4,27,23,18,20,11,3,74,58,42,30.02,29.96,29.90,10,8,2,18,7,26,0.01,6,Snow,282
2013-2-5,30,27,23,27,23,19,96,84,72,29.95,29.89,29.83,10,4,2,6,0,10,0.01,8,Snow,54
2013-2-6,38,29,20,27,20,8,96,64,32,30.37,30.09,29.91,10,6,0,16,5,21,T,5,Fog-Snow,283
2013-2-7,37,27,16,19,13,11,84,62,40,30.46,30.36,30.23,10,10,10,17,6,24,0.00,4,,68
2013-2-8,37,31,25,34,29,18,100,79,58,30.21,29.90,29.77,10,5,0,26,8,38,0.27,8,Fog-Rain-Snow,2
2013-2-9,30,23,15,19,13,11,81,65,49,30.44,30.24,29.94,10,10,4,23,11,31,T,5,Snow,311
2013-2-10,35,21,7,18,12,4,91,66,41,30.50,30.38,30.19,10,10,10,16,4,23,0.00,1,,78
2013-2-11,41,37,32,38,32,16,100,72,44,30.18,29.83,29.65,10,5,0,24,8,32,0.05,7,Fog-Rain,114
2013-2-12,39,33,26,23,22,21,81,66,50,30.01,29.92,29.78,10,10,10,24,9,31,0.00,7,,274
2013-2-13,40,31,21,32,26,18,100,75,50,29.96,29.80,29.71,10,6,1,8,1,13,0.05,5,Snow,287
2013-2-14,40,34,28,32,28,24,100,77,54,29.99,29.90,29.75,10,6,1,13,5,15,0.00,7,,280
2013-2-15,47,39,31,30,26,22,82,60,38,30.01,29.96,29.90,10,9,6,22,8,26,0.00,5,,257
2013-2-16,36,31,25,25,14,7,92,64,35,30.02,29.96,29.88,10,10,10,13,5,18,0.00,5,,344
2013-2-17,30,24,17,12,6,-1,65,50,34,30.17,29.94,29.86,10,9,2,28,13,40,T,5,Snow,299
2013-2-18,35,25,15,11,6,2,59,44,29,30.33,30.22,30.08,10,10,10,18,7,24,0.00,0,,293
2013-2-19,36,31,26,34,24,10,89,64,39,30.09,29.83,29.66,10,6,0,23,9,32,0.39,6,Fog-Rain-Snow,103
2013-2-20,28,25,21,18,11,8,68,59,50,30.10,29.95,29.82,10,10,9,25,14,35,T,8,,274
2013-2-21,35,29,22,15,13,10,68,56,43,30.38,30.20,30.07,10,10,10,21,11,29,T,5,,304
2013-2-22,32,26,20,24,19,15,84,71,58,30.40,30.30,30.19,10,10,7,16,6,23,T,6,Snow,77
2013-2-23,36,34,32,36,32,24,100,85,69,30.18,29.99,29.87,10,3,0,15,5,22,T,8,Fog-Rain,60
2013-2-24,36,34,31,34,27,16,100,72,44,30.08,29.90,29.83,10,6,0,20,9,25,0.00,8,Fog,281
2013-2-25,46,37,27,23,21,17,78,56,33,30.23,30.17,30.09,10,10,10,15,6,17,0.00,2,,267
2013-2-26,42,32,22,32,27,20,96,73,49,30.25,30.04,29.80,10,7,2,21,7,31,0.41,5,Rain-Snow,89
2013-2-27,40,37,33,36,34,32,100,93,85,29.78,29.63,29.56,10,3,0,16,3,20,0.61,8,Fog-Rain-Snow,267
2013-2-28,43,38,33,36,32,28,100,79,57,29.69,29.62,29.59,10,6,1,17,6,22,0.01,8,Rain,270